Regional Weather Roundup
Issued by NWS Sioux Falls, SD

Home | Current Version | Previous Version | Graphics & Text | Print | Product List | Glossary On
Versions: 1 2 3 4 5 6 7 8 9 10 11 12 13 14 15 16 17 18 19 20 21 22 23 24 25 26 27 28 29 30 31 32 33 34 35 36 37 38 39 40 41 42 43 44 45 46 47 48 49 50
000
ASUS43 KFSD 240910
RWRFSD

WEATHER ROUNDUP FOR SE SOUTH DAKOTA/SW MINNESOTA/NW IOWA
NATIONAL WEATHER SERVICE SIOUX FALLS SD
400 AM CDT WED MAY 24 2017

NOTE: "FAIR" INDICATES FEW OR NO CLOUDS BELOW 12,000 FEET WITH NO
SIGNIFICANT WEATHER AND OR OBSTRUCTIONS TO VISIBILITY.


SDZ038>040-050-052>070-241000-
SOUTHEAST SOUTH DAKOTA

CITY           SKY/WX    TMP DP  RH WIND       PRES   REMARKS
BROOKINGS      CLEAR     41  40  96 N5        29.84S
CHAMBERLAIN    CLEAR     39  39  99 CALM      29.88F
HURON          CLEAR     35  35 100 NW5       29.87F
MADISON        FAIR      39  39 100 NW10      29.84S
MITCHELL       CLEAR     40  39  97 NW7       29.86F
SIOUX FALLS    CLEAR     45  44  97 N7        29.82F
WINNER         FAIR      39  37  92 SW7       29.89F
YANKTON        CLEAR     43  42  97 NW10      29.84F
$$

MNZ071-072-080-081-089-090-097-098-241000-
SOUTHWEST MINNESOTA

CITY           SKY/WX    TMP DP  RH WIND       PRES   REMARKS
FAIRMONT       CLEAR     46  44  93 N10       29.77S
JACKSON        CLEAR     45  43  93 CALM      29.79R
LUVERNE        CLEAR     45  41  87 N3        29.81F
MARSHALL       MOCLDY    44  44 100 NW7       29.83F
MONTEVIDEO     CLEAR     45  45 100 N7        29.83S
PIPESTONE      MOCLDY    46  43  87 N6        29.82S
REDWOOD FALLS  CLEAR     46  43  89 NW6       29.80F
TRACY          CLEAR     46  46  98 NW9       29.82S
WINDOM         CLEAR     45  43  93 N8        29.79S
WORTHINGTON    CLEAR     44  43  96 N10       29.80S
$$

IAZ001>003-012>014-020>022-031-032-NEZ013-014-SDZ071-241000-
NORTHWEST IOWA

CITY           SKY/WX    TMP DP  RH WIND       PRES   REMARKS
CHEROKEE       CLEAR     44  44 100 N6        29.77F
DENISON        CLOUDY    50  46  87 N9        29.77S
ESTHERVILLE    CLEAR     46  45  96 N10       29.77S
LE MARS        CLEAR     46  45  93 N5        29.81S
ORANGE CITY    CLEAR     46  45  93 N9        29.79F
SHELDON        CLEAR     43  43 100 N9          N/A
SIOUX CITY     CLEAR     45  45 100 NW7       29.81S
SPENCER        CLEAR     47  45  93 N9        29.77F
STORM LAKE     CLEAR     46  45  93 N14       29.76F
$$

ABBREVIATIONS USED IN REMARKS
   TC - TEMPERATURE IN CELSIUS
  WCI - WIND CHILL INDEX
   HX - HEAT INDEX
  VSB - VISIBILITY





USA.gov is the U.S. government's official web portal to all federal, state and local government web resources and services.